Regional Weather Roundup
Issued by NWS

Home | Current Version | Previous Version | Graphics & Text | Print | Product List | Glossary On
Versions: 1 2 3 4 5 6 7 8 9 10 11 12 13 14 15 16 17 18 19 20 21 22 23 24 25 26 27 28 29 30 31 32 33 34 35 36 37 38 39 40 41 42 43 44 45 46 47 48 49 50
000
ASUS43 KBIS 220402
RWRND

NORTH DAKOTA REGIONAL WEATHER ROUNDUP
NATIONAL WEATHER SERVICE BISMARCK ND
1000 PM CST TUE FEB 21 2017

NOTE: "FAIR" INDICATES FEW OR NO CLOUDS BELOW 12,000 FEET WITH NO
SIGNIFICANT WEATHER AND/OR OBSTRUCTIONS TO VISIBILITY.


NDZ001>003-009>011-017-220500-
NORTHWEST NORTH DAKOTA

CITY           SKY/WX    TMP DP  RH WIND       PRES   REMARKS
WILLISTON      CLOUDY    35  32  88 N9        29.71R FOG
MINOT          CLOUDY    33  31  92 W6        29.69R
MINOT AFB      PTCLDY    31  30  98 W7        29.68R FOG
$$

NDZ018>021-031>035-040>046-220500-
SOUTHWEST NORTH DAKOTA

CITY           SKY/WX    TMP DP  RH WIND       PRES   REMARKS
BISMARCK       FAIR      38  35  89 NW3       29.68F
DICKINSON      FAIR      36  33  89 NE6       29.63S
GARRISON         N/A     37  35  92 W3        29.67R
HETTINGER ARPT PTCLDY    35  34  96 CALM      29.66F
$$

NDZ004>008-012>016-024-026-027-054-220500-
NORTHEAST NORTH DAKOTA

CITY           SKY/WX    TMP DP  RH WIND       PRES   REMARKS
GRAND FORKS    CLOUDY    33  30  88 CALM      29.69S FOG
GRND FRKS AFB  CLOUDY    32  32 100 CALM      29.68F FOG
DEVILS LAKE    MOCLDY    34  32  92 CALM      29.66S
$$

NDZ022-023-025-028>030-036>039-047>053-220500-
SOUTHEAST NORTH DAKOTA

CITY           SKY/WX    TMP DP  RH WIND       PRES   REMARKS
FARGO          MOCLDY    37  36  96 W6        29.71R
JAMESTOWN      CLOUDY    38  35  89 S6        29.68S
$$





USA.gov is the U.S. government's official web portal to all federal, state and local government web resources and services.